This demonstration page uses our WeatherBlox Daily Observations layout. Learn more.

Left ArrowRight Arrow

Hourly Observations for July 25, 2016

Temp ( °F °C ) Dew Point ( °F °C ) Humidity (%) Winds ( mph kmh ) Pressure ( in mb ) Visibility ( mi km ) Precip ( " mm )
12:53 am 00:53 Clear 75 23.9 70 21.1 84 84 Calm 30.01 1016 10 16 0.00 0.00
1:53 am 01:53 Clear 75 23.9 70 21.1 84 84 NW 3 6 30.00 1016 10 16 0.00 0.00
2:53 am 02:53 Clear 73 22.8 70 21.1 90 90 Calm 29.99 1016 10 16 0.00 0.00
3:53 am 03:53 Clear 73 22.8 70 21.1 90 90 Calm 29.99 1016 10 16 0.00 0.00
4:53 am 04:53 Mostly Clear 73 22.8 69 20.6 87 87 Calm 30.01 1016 10 16 0.00 0.00
5:53 am 05:53 Mostly Clear 73 22.8 69 20.6 87 87 Calm 30.03 1017 10 16 0.00 0.00
6:53 am 06:53 Sunny 73 22.8 69 20.6 87 87 Calm 30.04 1017 10 16 0.00 0.00
7:53 am 07:53 Sunny 77 25 71 21.7 82 82 Calm 30.06 1018 10 16 0.00 0.00
8:53 am 08:53 Sunny 81 27.2 72 22.2 74 74 Calm 30.06 1018 10 16 0.00 0.00
9:53 am 09:53 Sunny 86 30 71 21.7 61 61 NW 6 9 30.06 1018 10 16 0.00 0.00
10:53 am 10:53 Sunny 90 32.2 71 21.7 54 54 undefined N/A 30.06 1018 10 16 0.00 0.00
11:53 am 11:53 Mostly Sunny 91 32.8 71 21.7 52 52 NNW 3 6 30.04 1017 10 16 0.00 0.00
12:53 pm 12:53 Mostly Sunny 91 32.8 68 20 47 47 VRB 3 6 30.03 1017 10 16 0.00 0.00
1:53 pm 13:53 Mostly Cloudy 93 33.9 67 19.4 42 42 NW 6 9 30.01 1016 10 16 0.00 0.00
2:53 pm 14:53 Mostly Cloudy 94 34.4 69 20.6 44 44 NNW 3 6 29.98 1015 10 16 0.00 0.00
3:53 pm 15:53 Partly Cloudy 94 34.4 66 18.9 40 40 Calm 29.96 1015 10 16 0.00 0.00
4:53 pm 16:53 Mostly Sunny 94 34.4 65 18.3 38 38 VRB 3 6 29.94 1014 10 16 0.00 0.00
5:53 pm 17:53 Partly Cloudy 96 35.6 67 19.4 39 39 VRB 3 6 29.93 1014 10 16 0.00 0.00
6:53 pm 18:53 Mostly Cloudy 93 33.9 67 19.4 42 42 WSW 8 13 29.93 1013 10 16 0.00 0.00
7:53 pm 19:53 Cloudy with Nearby Thunderstorms 88 31.1 68 20 52 52 SW 7 11 29.96 1015 10 16 0.00 0.00
8:29 pm 20:29 Cloudy with Heavy Rain 83 28.3 72 22.2 70 70 SSW 14 22 30.00 1016 5 8 0.04 1.02
8:35 pm 20:35 Cloudy with Heavy Rain 79 26.1 73 22.8 82 82 SSW 16 26 30.00 1016 2 3 0.17 4.32
8:46 pm 20:46 Cloudy with Light Rain 79 26 72 22 79 79 WSW 13 20 30.00 1016 3 5 0.00 0.00
8:53 pm 20:53 Mostly Cloudy with Light Rain 77 25 72 22.2 85 85 W 9 15 29.99 1016 10 16 0.24 6.10
9:53 pm 21:53 Mostly Cloudy 77 25 72 22.2 85 85 SW 3 6 30.00 1016 10 16 0.01 0.25
10:53 pm 22:53 Mostly Cloudy 75 23.9 73 22.8 94 94 NNE 5 7 30.03 1017 9 14 0.00 0.00
11:53 pm 23:53 Cloudy 77 25 73 22.8 88 88 Calm 30.04 1017 10 16 0.00 0.00

Powered by AerisWeather